This is the latest recevied weather packets stored in our database for station/object KC5EZZ-2. If no packets are shown the sender has not sent any weather packets the latest 10 day(s).
| Time | Temp. | Humidity | Pressure | Rain* | Wind** | Luminosity | Snow |
|---|---|---|---|---|---|---|---|
| 1778033435 | 26.67° C | - | - | 0 mm | 0 m/s | - | - |
| 1778033136 | 26.67° C | - | - | 0 mm | 0.89 m/s, 297° | - | - |
| 1778032833 | 26.67° C | - | - | 0 mm | 1.79 m/s, 301° | - | - |
| 1778032534 | 26.67° C | - | - | 0 mm | 1.34 m/s, 298° | - | - |
| 1778032234 | 26.67° C | - | - | 0 mm | 1.34 m/s, 291° | - | - |
| 1778031932 | 27.22° C | - | - | 0 mm | 1.79 m/s, 293° | - | - |
| 1778031632 | 27.78° C | - | - | 0 mm | 1.79 m/s, 290° | - | - |
| 1778031333 | 27.78° C | - | - | 0 mm | 2.24 m/s, 294° | - | - |
| 1778031031 | 27.78° C | - | - | 0 mm | 2.24 m/s, 284° | - | - |
| 1778030731 | 28.33° C | - | - | 0 mm | 2.68 m/s, 281° | - | - |
| 1778030431 | 28.33° C | - | - | 0 mm | 3.13 m/s, 283° | - | - |
| 1778030129 | 28.89° C | - | - | 0 mm | 2.24 m/s, 280° | - | - |
| 1778029829 | 29.44° C | - | - | 0 mm | 2.24 m/s, 277° | - | - |
| 1778029530 | 29.44° C | - | - | 0 mm | 2.68 m/s, 304° | - | - |
| 1778029227 | 30° C | - | - | 0 mm | 3.58 m/s, 290° | - | - |
| 1778028927 | 30.56° C | - | - | 0 mm | 2.24 m/s, 285° | - | - |
| 1778028628 | 30.56° C | - | - | 0 mm | 2.68 m/s, 266° | - | - |
| 1778028326 | 30.56° C | - | - | 0 mm | 3.13 m/s, 293° | - | - |
| 1778028026 | 31.11° C | - | - | 0 mm | 2.68 m/s, 243° | - | - |
| 1778027726 | 31.67° C | - | - | 0 mm | 3.13 m/s, 271° | - | - |
| 1778027424 | 31.67° C | - | - | 0 mm | 1.34 m/s, 321° | - | - |
| 1778027124 | 31.67° C | - | - | 0 mm | 0.45 m/s, 238° | - | - |
| 1778026824 | 32.22° C | - | - | 0 mm | 0.45 m/s, 231° | - | - |
| 1778026522 | 32.22° C | - | - | 0 mm | 1.34 m/s, 211° | - | - |
| 1778026222 | 32.22° C | - | - | 0 mm | 0.89 m/s, 246° | - | - |
* Rain latest hour (hover to see other rain measurements)
** Current wind speed in m/s (hover to see current wind gust speed)